This is the latest recevied weather packets stored in our database for station/object K5KHP. If no packets are shown the sender has not sent any weather packets the latest 10 day(s).
| Time | Temp. | Humidity | Pressure | Rain* | Wind** | Luminosity | Snow |
|---|---|---|---|---|---|---|---|
| 1777762811 | 20.56° C | 74% | 1010.9 hPa | 0 mm | - | 390 W/m² | - |
| 1777762506 | 20.56° C | 75% | 1011 hPa | 0 mm | - | 390 W/m² | - |
| 1777762204 | 20° C | 76% | 1010.9 hPa | 0 mm | - | 390 W/m² | - |
| 1777761899 | 20° C | 73% | 1011 hPa | 0 mm | - | 403 W/m² | - |
| 1777761596 | 20° C | 74% | 1011.3 hPa | 0 mm | - | 412 W/m² | - |
| 1777761294 | 19.44° C | 76% | 1011.1 hPa | 0 mm | - | 454 W/m² | - |
| 1777760992 | 20° C | 76% | 1011.3 hPa | 0 mm | - | 491 W/m² | - |
| 1777760690 | 20° C | 75% | 1011.6 hPa | 0 mm | - | 494 W/m² | - |
| 1777760385 | 20° C | 75% | 1011.8 hPa | 0 mm | - | 501 W/m² | - |
| 1777760081 | 20° C | 75% | 1012 hPa | 0 mm | - | 509 W/m² | - |
| 1777759779 | 19.44° C | 76% | 1011.8 hPa | 0 mm | - | 529 W/m² | - |
| 1777759474 | 20° C | 73% | 1012 hPa | 0 mm | - | 544 W/m² | - |
| 1777759171 | 20° C | 74% | 1011.9 hPa | 0 mm | - | 553 W/m² | - |
| 1777758869 | 19.44° C | 75% | 1012.1 hPa | 0 mm | - | 580 W/m² | - |
| 1777758565 | 19.44° C | 75% | 1012.2 hPa | 0 mm | - | 628 W/m² | - |
| 1777758262 | 20.56° C | 74% | 1012.4 hPa | 0 mm | - | 416 W/m² | - |
| 1777757960 | 20° C | 74% | 1012.4 hPa | 0 mm | - | 344 W/m² | - |
| 1777757656 | 20° C | 76% | 1012.4 hPa | 0 mm | - | 620 W/m² | - |
| 1777757355 | 20° C | 75% | 1012.5 hPa | 0 mm | - | 636 W/m² | - |
| 1777757054 | 19.44° C | 76% | 1012.7 hPa | 0 mm | - | 677 W/m² | - |
| 1777756750 | 19.44° C | 76% | 1012.6 hPa | 0 mm | - | 624 W/m² | - |
| 1777756445 | 20° C | 75% | 1012.7 hPa | 0 mm | - | 640 W/m² | - |
| 1777756143 | 19.44° C | 77% | 1012.7 hPa | 0 mm | - | 651 W/m² | - |
| 1777755840 | 20.56° C | 75% | 1012.7 hPa | 0 mm | - | 665 W/m² | - |
| 1777755537 | 20° C | 76% | 1012.8 hPa | 0 mm | - | 684 W/m² | - |
* Rain latest hour (hover to see other rain measurements)
** Current wind speed in m/s (hover to see current wind gust speed)